Regional Weather Roundup
Issued by NWS Wakefield, VA

Home | Current Version | Previous Version | Graphics & Text | Print | Product List | Glossary On
Versions: 1 2 3 4 5 6 7 8 9 10 11 12 13 14 15 16 17 18 19 20 21 22 23 24 25 26 27 28 29 30 31 32 33 34 35 36 37 38 39 40 41 42 43 44 45 46 47 48 49 50
000
ASUS41 KAKQ 272115
RWRAKQ

REGIONAL WEATHER ROUNDUP
NATIONAL WEATHER SERVICE WAKEFIELD VA
500 PM EDT FRI MAY 27 2016

Note: "fair" indicates few or no clouds below 12,000 feet with no
significant weather and/or obstructions to visibility. * = Denotes
station may not report precipitation (e.g., rain,snow,etc.),
thunder or fog.

VAZ042-051-052>054-056-272200-
NORTHERN VIRGINIA

CITY           SKY/WX    TMP DP  RH WIND       PRES   REMARKS
WASH NATIONAL  FAIR      85  70  60 S9        30.03F
DULLES         PTSUNNY   87  66  49 S9        30.03F
FORT BELVOIR   FAIR      87  70  56 SE8       30.03F
QUANTICO       FAIR      82  70  66 S7        30.04F
FREDERICKSBRG* FAIR      90  68  48 S10       30.03F
STAFFORD*      FAIR      88  65  45 S7        30.08S
WARRENTON      FAIR      88  61  39 S7        30.04F
CULPEPER*      FAIR      89  69  52 S5        30.04F
MANASSAS*      SUNNY     90  68  48 S8        30.03F
LEESBURG*      FAIR      91  70  49 S10G22    30.04F HX  97
WINCHESTER     FAIR      86  64  48 SE6       30.03F
FRONT ROYAL*   FAIR      88  70  55 S6        30.03F
LURAY*         MOCLDY    88  64  45 S3        30.04F
$$

VAZ048-049-060>072-079>083-272200-
CENTRAL AND SOUTH CENTRAL VIRGINIA

CITY           SKY/WX    TMP DP  RH WIND       PRES   REMARKS
RICHMOND       FAIR      86  64  47 S14       30.06F
CHESTERFIELD*  FAIR      88  61  40 S9        30.08F
PETERSBURG*    FAIR      88  64  45 S6        30.08S
HANOVER        FAIR      88  63  43 SW6       30.07F
TAPPAHANNOCK*  FAIR      89  63  41 S7        30.07S
QUINTON*       FAIR      87  67  51 S5        30.07S
CHARLOTTSVILLE FAIR      87  68  52 S8        30.05
GORDONSVILLE*  FAIR      87  70  56 S6        30.04F
ORANGE*        FAIR      88  64  45 SW10      30.07S
LOUISA*        FAIR      90  72  55 CALM      30.05S HX  96
BUMPASS*       FAIR      87  69  55 S7        30.06S
FARMVILLE*     NOT AVBL
CREWE*         FAIR      86  67  53 S9        30.08S
FORT PICKETT*  NOT AVBL
CHASE CITY*    FAIR      87  61  42 S6        30.09S
CLARKSVILLE*   FAIR      86  66  51 SW10      30.08F
SOUTH HILL*    FAIR      82  67  60 S9        30.14F
LAWRENCEVILLE* MOCLDY    83  69  61 S5        30.09S
EMPORIA*       FAIR      86  66  51 SE7       30.10F
$$

VAZ088>098-272200-
SOUTHEAST VIRGINIA

CITY           SKY/WX    TMP DP  RH WIND       PRES   REMARKS
NORFOLK        FAIR      85  61  44 S14       30.10R
VIRGINIA BEACH FAIR      84  59  42 S12       30.11R
NORFOLK NAVAL  FAIR      86  62  44 S9        30.10F
WEST POINT*    FAIR      87  63  44 S6        30.08F
SALUDA*        FAIR      85  69  59 SE6G16    30.08S
NEWPORT NEWS   FAIR      86  66  51 S8        30.08F
LANGLEY AFB    FAIR      85  65  49 S10       30.08F
FORT EUSTIS    FAIR      85  72  64 S9        30.07S
WILLIAMSBURG*  FAIR      90  66  45 S6        30.09S
HR EXEC AP*    MOCLDY    88  64  45 S8        30.11S
FRANKLIN*      PTSUNNY   84  64  51 S6        30.09S
US460-WAKEFLD  CLOUDY    86  65  49 VRB6      30.08F
$$

VAZ020-022-025-037-045-272200-
WEST CENTRAL AND SOUTHWEST VIRGINIA

CITY           SKY/WX    TMP DP  RH WIND       PRES   REMARKS
STAUNTON*      FAIR      85  66  53 SE10      30.08F
WAYNESBORO*    FAIR      84  63  48 S7        30.09F
HOT SPRINGS VA FAIR      74  58  59 S9G16     30.20F
LYNCHBURG      PTSUNNY   83  65  54 S14       30.09F
DANVILLE       FAIR      84  64  50 S8        30.08F
SOUTH BOSTON*  FAIR      85  64  49 SE7       30.08F
MARTINSVILLE   FAIR      83  63  49 SW3       30.11S
ROANOKE        PTSUNNY   84  65  52 S9        30.09F
BLACKSBURG     FAIR      79  63  57 SE6       30.17F
DUBLIN*        FAIR      80  60  50 SE5       30.15S
MARION*        FAIR      80  64  57 N3        30.16F
HILLSVILLE*    FAIR      78  65  64 S8        30.16S
RICHLANDS*     FAIR      80  69  68 E5        30.13F
WISE*          FAIR      82  50  32 CALM      30.13F
ABINGDON*      FAIR      81  64  55 E8        30.10F
$$

MDZ021>025-VAZ099-100-272200-
SOUTHERN MARYLAND AND THE DELMARVA PENINSULA

CITY           SKY/WX    TMP DP  RH WIND       PRES   REMARKS
PATUXENT RIVER MOSUNNY   81  67  62 SE10      30.05F
BAY BRIDGE APT SUNNY     84  70  61 S12       30.05S
LEONARDTOWN    MOSUNNY   86  66  51 SE3       30.07S
DOVER          SUNNY     89  70  53 SW14      30.03F
GEORGETOWN     SUNNY     88  63  43 SW15      30.07F
EASTON         SUNNY     86  73  66 S10       30.10F
CAMBRIDGE      SUNNY     82  66  57 S14       30.07S
SALISBURY      MOSUNNY   85  67  54 S12       30.08S
OCEAN CITY     SUNNY     76  61  59 SW13G21   30.11S
WALLOPS ISLAND FAIR      75  61  61 S21       30.12F
ACCOMACK*      FAIR      79  57  47 S17G25    30.11F
$$

NCZ012>017-030>032-272200-
NORTH CENTRAL AND EASTERN NORTH CAROLINA

CITY           SKY/WX    TMP DP  RH WIND       PRES   REMARKS
ROANOKE RAPIDS FAIR      86  63  45 S7        30.09F
RALEIGH        MOSUNNY   85  65  51 SW7       30.09F
ELIZABETH CITY SUNNY     82  61  48 SE13      30.12F
AHOSKIE*       MOSUNNY   84  63  49 SE7       30.10S
EDENTON*       MOSUNNY   84  65  52 S10       30.12F
CURRITUCK*     SUNNY     83  55  38 S9G16     30.13F
KILL DEVIL HLS SUNNY     83  57  41 SE10G16   30.13F
MANTEO         NOT AVBL
CAPE HATTERAS  SUNNY     82  65  56 SE7       30.15S
TARBORO*       FAIR      87  62  43 S6        30.10F
GOLDSBORO      MOSUNNY   88  60  39 S8        30.08F
WASHINGTON     SUNNY     83  58  42 E12       30.12S
GREENVILLE     PTSUNNY   86  61  42 SE10      30.12S
NEW BERN       SUNNY     82  56  40 SE9       30.13S
WILMINGTON     SUNNY     79  60  52 E8        30.13S
$$

VAZ048-272200-
ELSEWHERE

CITY           SKY/WX    TMP DP  RH WIND       PRES   REMARKS
HARRISBURG PA  PTSUNNY   88  67  49 VRB3      30.00F
BALTIMORE      MOSUNNY   87  69  54 SE9G18    30.03S
ANNAPOLIS      SUNNY     81  69  67 S12       30.04F
ANDREWS AFB    FAIR      88  68  50 SW12      30.04F
PHILADELPHIA   MOSUNNY   89  63  41 SW13      30.03F
HENDERSON NC   SUNNY     82  63  51 S8        30.10S
GREENSBORO     MOSUNNY   84  61  45 SW10      30.09F
ROCKY MOUNT    MOSUNNY   85  62  46 S5        30.09F
$$

VAZ100-272200-
MARINE

STATION/POSITION TIME  TEMP    WIND        PRES    WAVE   SWELL
                       AIR SEA DIR/SP/G            HT/PER HT/PER
                 (UTC) (F)     (DEG/KT/KT) (MB)    (FT/S) (FT/S)
BRANDYWINE LGT   2000   67     180/ 19/ 21 1018.1F
CAPE MAY NJ      2000   71 66  160/ 17/ 21 1018.2F
LEWES DE         2000   82 63  170/  8/ 14 1018.2S
15NM E FENWICK I 2050   67 61              1019.4S   3/ 5
OCEAN-CITY-INLET 2000   64 59  220/ 15/ 17 1020.2R
WACHAPREAGUE VA  2000   76 77  200/ 16/ 21 1019.5S
THOMAS POINT MD  2100   73 68  180/ 10/ 11 1018.7F
GOOSES REEF MD   2100   73 67  160/ 14/ 16 1018.7F   1/ 3
COVE POINT MD    2000   71     180/ 14/ 18 1018.6F
SOLOMONS ISLAND  2000   77 66  120/ 11/ 11   N/A
BISHOPS HEAD MD  2000   80 80  180/ 19/ 22 1018.5F
PINEY POINT MD   2000          150/ 11/ 11   N/A
POTOMAC MD       2100   76 71  180/ 16/ 19 1017.4S   1/ 2
CAMBRIDGE MD     2000   83 65  160/  7/ 12 1017.7S
LEWISETTA VA     2000   84 72  220/ 10/ 12 1017.8S
RAPPAHANNOCK LGT 2000          150/ 13/ 14 1019.9R
STINGRAY PT      2100   72 69  170/ 17/ 19 1019.3F   2/ 3
YORK RVR RNG VA  2000   74     140/ 13/ 15 1018.4F
YORKTOWN VA      2000   85 67  180/  9/ 12 1018.4F
JAMESTOWN VA     2100   83 75  170/  8/ 10   N/A
DOMINION TERM VA 2000   80     190/  7/  8 1019.0F
KIPTOPEKE VA     2000      70  170/ 21/ 24   N/A
CHES BAY BRIDGE  2000   79 65  140/ 14/ 17 1019.2S
CAPE HENRY VA    2000   76     140/ 16/ 20   N/A
CHESAPEAKE LGHT  2000   72     170/ 22/ 24 1020.4R
WILLOUBY STN VA  2000   83     190/ 14/ 17 1020.0F
CAPE HENRY BUOY  2012      68                N/A     2/ 3
1ST LANDING BUOY 2100   74 69  140/ 16/ 17 1019.3R   2/ 3
CAPE CHARLES BUO 2026      67                N/A     3/ 4   2/ 8
OFFSHORE WE BUOY 2021      65                N/A     2/ 8   2/ 8
64NM E OF VA BCH 2050   68 62  170/  8/ 10 1020.5F   2/ 8   2/ 8
DUCK PIER NC     2000   71 64  130/ 16/ 17 1020.1F
44100 DUCK FRF   2024      69                N/A     2/ 8
44056 DUCK FRF   2011      65                N/A     1/ 8
OREGON INLET NC  2000   77 78   90/  6/  9 1021.1F
HATTERAS NC      2000   77 73  140/  9/ 12 1020.5F
DIAMOND SHLS NC  2050   76 78  120/ 10/ 12 1020.7F   3/ 7   2/ 7
CAPE LOOKOUC1F1C2F2C3F3C4F4C5F5C6F6C7F7C8M1C9!


USA.gov is the U.S. government's official web portal to all federal, state and local government web resources and services.